Weather History for Lubbock, TX

Change the Weather History Date:

Saturday, September 8, 2012

  Actual Average Record
Temperature  
Mean Temperature 68 °F 74 °F  
Max Temperature 75 °F 87 °F 97 °F (1915)
Min Temperature 60 °F 62 °F 47 °F (2004)
Degree Days  
Heating Degree Days 0 0  
Month to date heating degree days 0 0  
Since 1 July heating degree days 0 0  
Cooling Degree Days 3 9  
Month to date cooling degree days 123 83  
Year to date cooling degree days 2105 1609  
Growing Degree Days 18 (Base 50)    
Moisture  
Dew Point 48 °F    
Average Humidity 52    
Maximum Humidity 72    
Minimum Humidity 31    
Precipitation  
Precipitation T in 0.09 in 1.89 in (1976)
Month to date precipitation 0.20 0.68  
Year to date precipitation 8.62 13.75  
Snow  
Snow 0.00 in 0.00 in 0.00 in (2002)
Month to date snowfall 0.0 0.0  
Since 1 July snowfall 0.0 0.0  
Since 1 September snowfall 0.0 0.0  
Snow Depth 0.00 in    
Sea Level Pressure  
Sea Level Pressure 30.17 in    
Wind  
Wind Speed 7 mph (North)    
Max Wind Speed 20 mph    
Max Gust Speed 25 mph    
Visibility 10 miles    
Events Rain    
T = Trace of Precipitation, MM = Missing Value Source: NWS Daily Summary

Daily Weather History Graph

Daily Weather History Graph

Search for Another Location

Airport:

Trip Planner

Search our weather history database for the weather conditions in past years. The results will help you decide how hot, cold, wet, or windy it might be!

Date:

Astronomy

Sep. 08, 2012 Rise Set
Actual Time 7:26 AM CDT 8:02 PM CDT
Civil Twilight 7:01 AM CDT 8:27 PM CDT
Nautical Twilight 6:31 AM CDT 8:57 PM CDT
Astronomical Twilight 6:01 AM CDT 9:27 PM CDT
Moon 12:22 AM CDT (9/8) 2:48 PM CDT (9/8)
Length of Visible Light 13h 26m
Length of Day
12h 36m
Waning Gibbous, 48% of the Moon is Illuminated
Sep 8
Waning Gibbous
Sep 15
New
Sep 22
First Quarter
Sep 29
Full
Oct 8
Last Quarter

Hourly Weather History & Observations

Time (CDT) Temp. Dew Point Humidity Pressure Visibility Wind Dir Wind Speed Gust Speed Precip Events Conditions
12:53 AM 64.0 °F 50.0 °F 60% 30.09 in 10.0 mi NNE 17.3 mph 24.2 mph N/A   Mostly Cloudy
1:53 AM 63.0 °F 48.9 °F 60% 30.09 in 10.0 mi NE 12.7 mph - N/A   Mostly Cloudy
2:53 AM 62.1 °F 50.0 °F 65% 30.10 in 10.0 mi NNE 13.8 mph - N/A   Mostly Cloudy
3:53 AM 62.1 °F 46.9 °F 58% 30.14 in 10.0 mi NE 10.4 mph 19.6 mph N/A   Mostly Cloudy
4:53 AM 61.0 °F 48.9 °F 64% 30.14 in 10.0 mi NE 8.1 mph - N/A   Overcast
5:53 AM 60.1 °F 51.1 °F 72% 30.16 in 10.0 mi NE 9.2 mph - 0.00 in Rain Light Rain
6:53 AM 60.1 °F 52.0 °F 75% 30.19 in 10.0 mi NE 4.6 mph - 0.00 in   Overcast
7:53 AM 61.0 °F 52.0 °F 72% 30.22 in 10.0 mi NE 5.8 mph - N/A   Overcast
8:53 AM 62.1 °F 51.1 °F 67% 30.24 in 10.0 mi NNE 6.9 mph - N/A   Overcast
9:53 AM 63.0 °F 51.1 °F 65% 30.25 in 10.0 mi NE 6.9 mph - 0.00 in   Overcast
10:53 AM 64.9 °F 48.9 °F 56% 30.26 in 10.0 mi NE 9.2 mph - N/A   Overcast
11:53 AM 66.9 °F 48.0 °F 51% 30.25 in 10.0 mi NE 8.1 mph - N/A   Overcast
12:53 PM 68.0 °F 44.1 °F 42% 30.23 in 10.0 mi NE 10.4 mph - N/A   Overcast
1:53 PM 69.1 °F 43.0 °F 39% 30.23 in 10.0 mi NNE 6.9 mph - N/A   Mostly Cloudy
2:53 PM 73.0 °F 45.0 °F 37% 30.19 in 10.0 mi North 8.1 mph - N/A   Mostly Cloudy
3:53 PM 73.0 °F 41.0 °F 31% 30.17 in 10.0 mi North 5.8 mph - N/A   Mostly Cloudy
4:53 PM 72.0 °F 43.0 °F 35% 30.15 in 10.0 mi NW 6.9 mph - N/A   Mostly Cloudy
5:53 PM 72.0 °F 44.1 °F 37% 30.14 in 10.0 mi NNW 6.9 mph - N/A   Mostly Cloudy
6:53 PM 72.0 °F 45.0 °F 38% 30.13 in 10.0 mi NNW 3.5 mph - N/A   Mostly Cloudy
7:53 PM 70.0 °F 46.0 °F 42% 30.12 in 10.0 mi West 5.8 mph - N/A   Mostly Cloudy
8:53 PM 66.9 °F 46.9 °F 49% 30.14 in 10.0 mi West 3.5 mph - N/A   Mostly Cloudy
9:53 PM 64.9 °F 46.9 °F 52% 30.15 in 10.0 mi WNW 4.6 mph - N/A   Mostly Cloudy
10:53 PM 64.9 °F 48.9 °F 56% 30.16 in 10.0 mi WNW 5.8 mph - N/A   Overcast
11:53 PM 64.0 °F 52.0 °F 65% 30.15 in 10.0 mi West 8.1 mph - N/A   Overcast